Home   Weather   Montreux   Past weeks
Flag for Switzerland

Past Weather in Montreux, Vaud, Switzerland — Yesterday and Last 2 Weeks

Now
55 °F

Cool.


Feels Like: 55 °F
Forecast: 56 / 47 °F
Wind: 2 mph from West

Location: Aigle

Current Time: Oct 21, 2019 at 2:13:19 am

Latest Report: Oct 21, 2019 at 1:00 am


Visibility: N/A

Pressure: 29.87 "Hg

Humidity: 94%

Dew Point: 54 °F

Location of MontreuxLocation

Past Weather in Montreux — Graph

°F

Montreux Temperature Yesterday

Maximum temperature yesterday: 59 °F (at 4:00 pm)
Minimum temperature yesterday: 46 °F (at 4:00 am)
Average temperature yesterday: 54 °F

High & Low Weather Summary for the Past Weeks

 TemperatureHumidityPressure
High70 °F (Oct 13, 4:00 pm)100% (Oct 20, 2:00 am)30.27 "Hg (Oct 20, 2:00 am)
Low40 °F (Oct 12, 3:00 am)39% (Oct 14, 10:00 pm)29.72 "Hg (Oct 20, 4:00 pm)
Average54 °F83%30.01 "Hg
* Reported Oct 6 12:00 am — Oct 21 12:00 am, Montreux. Weather by CustomWeather, © 2019

Note: Actual official high and low records may vary slightly from our data, if they occured in-between our weather recording intervals... More about our weather records

Advertising

Montreux Weather History for the Previous 24 Hours

Scroll right to see more
 ConditionsComfort  
Time TempWeatherWind HumidityBarometerVisibility
12:00 am
Mon, Oct 21
56 °FCool.2 mph92%29.85 "HgN/A
11:00 pm
Sun, Oct 20
56 °FCool.2 mph96%29.86 "HgN/A
10:00 pm57 °FCool.10 mph92%29.83 "HgN/A
9:00 pm56 °FCool.10 mph92%29.78 "HgN/A
8:00 pm56 °FPassing clouds.2 mph92%29.76 "Hg19 mi
7:00 pm54 °FCool.2 mph94%29.75 "HgN/A
6:00 pm57 °FCool.2 mph88%29.74 "HgN/A
5:00 pm59 °FPartly sunny.5 mph82%29.72 "Hg22 mi
4:00 pm59 °FCool.3 mph83%29.72 "HgN/A
3:00 pm58 °FCool.12 mph84%29.74 "HgN/A
2:00 pm58 °FPartly sunny.15 mph84%29.75 "Hg25 mi
1:00 pm59 °FCool.12 mph82%29.75 "HgN/A
12:00 pm58 °FCool.8 mph85%29.77 "HgN/A
11:00 am58 °FOvercast.10 mph87%29.77 "Hg14 mi
10:00 am52 °FCool.2 mph98%29.79 "HgN/A
9:00 am49 °FCool.1 mph98%29.79 "HgN/A
8:00 am49 °FLow clouds.1 mph98%29.79 "Hg9 mi
7:00 am49 °FCool.No wind99%29.80 "HgN/A
6:00 am49 °FCool.2 mph97%29.80 "HgN/A
5:00 am47 °FFog.2 mph100%29.81 "Hg7 mi
4:00 am46 °FCool.1 mph100%29.80 "HgN/A
3:00 am49 °FCool.2 mph99%29.79 "HgN/A
2:00 am48 °FCool.1 mph100%29.80 "HgN/A
Weather by CustomWeather, © 2019

See weather overview